Location: *
(52.2090°N, 4.1550°W)
Time: 07:41:29
(UTC+00:00)

Cosmos 1933 Rocket - Pass Details

Date: 19 July 2019
Orbit: 606 x 631 km, 82.5° (Epoch: 24 August)

Event Time Altitude Azimuth Distance (km) Brightness Sun altitude
Exits shadow 22:50:58 22° 140° (SE) 1,354 4.7 -14.3°
Maximum altitude 22:53:04 35° 91° (E) 1,010 4.4 -14.4°
Drops below altitude 10° 22:57:04 10° 26° (NNE) 1,992 6.8 -14.7°
Sets 22:59:26 0° 18° (NNE) 2,899 7.9 -14.8°
